Location: Tamazert
(32.6352°N, 5.2072°W)
Time: 03:56:30
(UTC+00:00)

Cosmos 2084 Rocket - Pass Details

Date: 22 May 2022
Orbit: 497 x 678 km, 62.8° (Epoch: 24 June)

Event Time Altitude Azimuth Distance (km) Brightness Sun altitude
Exits shadow 02:57:33 33° 338° (NNW) 860 4.5 -24.6°
Drops below altitude 10° 03:00:13 10° 14° (NNE) 1,705 6.6 -24.3°
Sets 03:02:28 0° 23° (NNE) 2,586 7.9 -24.0°
